Tracking 19242 objects as of 17-Aug-2018
HD Live streaming from Space Station
objects crossing your sky now

FENGYUN 1C DEB

Track FENGYUN 1C DEB now!
10-day predictions


NORAD ID: 30331
Int'l Code: 1999-025AAS
Perigee: 844.1 km
Apogee: 991.1 km
Inclination: 99.3 °
Period: 103.2 minutes
Semi major axis: 7288 km
RCS: 0.0259 m2 (small)
Launch date: May 10, 1999
Source: People's Republic of China (PRC)
Launch site: Taiyaun Space Center, China (TSC)

Note: This is SATELLITE DEBRIS
aabbcc
Your satellite tracking list
Your tracking list is empty




NASA's NSSDC Master Catalog

Two Line Element Set (TLE):
1 30331U 99025AAS 18228.07590668  .00000268  00000-0  22188-3 0  9997
2 30331  99.2683 252.6860 0100810 124.9295 300.6519 13.95202782587991
Source of the keplerian elements: AFSPC